STARLINK-36228, 67096

Orbit data source: Space-Track

STARLINK-36228, 67096 is a payload satellite owned by SpaceX/Seattle (US) in LEO that was launched on Sun, 14 Dec 2025 UTC via an FALCON 9 launch vehicle from the Air Force Western Test Range (AFWTR). Payload-class satellites include a variety of spacecraft equipped with specific instruments for various scientific and technological missions. These include communications satellites like Starlink; space stations such as the ISS; scientific satellites like the Hubble; Earth observation satellites from companies like Planet Labs, Umbra, and HawkEye 360; GPS; miniature CubeSats for education and research; and military/defense satellites.

Loading next visibility...
Identifier
67096, 2025-298X
Orbit
LEO
Country
Flag of USUS
Related business
Manufacturer
SpaceX/Seattle
Mission
Operational Commercial Communications
Bus & Motor
STARLINK V2MO, Unknown motor
Mass
575 kg wet, ~530 kg dry
Launch date (UTC)
2025-12-14 (6 months ago)
Launch vehicle
FALCON 9
Launch site
Air Force Western Test Range (AFWTR)
Object type
Payload
Rocket body
Debris
Shape & HBR
Box + 2 Pan, 17.7 m
Radar Cross Section
36.964 m², Large (>1 m²)

Expand to show TLE details & history
Last TLE update: 14 hours ago

TLE from 14 hours ago
0 STARLINK-36228
1 67096U 25298X   26171.28325784  .00007295  00000-0  61839-3 0  9993
2 67096  70.0012 115.8273 0002676 278.7400  81.3456 14.98339809 28580
Epoch: 2026-06-20T06:47Z
TLE epoch observation values (Epoch: 2026-06-20T06:47:53.477Z)
Latitude
-0.00001°
Longitude
105.35437°
Altitude
574.17 km
Speed
7.574 km/s
True Right ascension
07h 43m 18s
True Declination
0° 00' 00"
Sunlit
Object was in daylight at epoch
Visualization orbit readout
Latitude
Unknown
Longitude
Unknown
Altitude
Unknown
Speed
Unknown
Apparent Right ascension
Unknown
Apparent Declination
Unknown
Sunlit
N/A
Visualization observer readout
Local Sidereal Time
07:22:06
Azimuth
Unknown
Elevation
Unknown
Doppler factor
Unknown
Orbital elements
Apogee altitude
571.833 km
Perigee altitude
568.114 km
Semi-major axis
6,948.111 km
Eccentricity
0.00027
Inclination
70.0012°
RAAN
115.8273°
Arg. of periapsis
278.74°
True anomaly
81.37592°
Mean anomaly
81.3456°
Eccentric anomaly
81.36076°
Mean motion
3.74751 °/min
Orbital period
96.06 mins
BSTAR
0.00061839
Loading maneuver chart data...
Computing Atmospheric mass density...
Loading historical data...
Loading historical data...
Loading historical data...
Loading historical data...
Loading historical data...
Loading historical data...
Loading historical data...

Documentation

Showing up to 5 results
|